"Pseudo-MPEC" for P10LmOO

Created 2019 Jan 12 23:18:27 UT using Find_Orb

Click here for an explanation of pseudo-MPECs

 
 Astrometry: 
     P10LmOO  C2019 01 10,wZAstrometryZLWdR13Vmq:?=redacted;q,m!GRlaKN^jajBA$F51
     P10LmOO  C2019 01 10BF=UclickdtI\4BS`NaOHmuc$G/hereek+`Iy8lyVG=*JSrl-XuaF51
     P10LmOO  C2019 01 10c2yforM+#N:B@E(ixu5wQ]n5aH-./f)p_-ZL`aWd5K`UJiyHd4yoF51
     P10LmOO  C2019 01 10*3o7u$Wexplanation$Oqe/CKJTi_%Po)sn+]\*,b+6u!'JY9N.0F51
     P10LmOO ^C2019 01 11.63916510 18 04.040-03 06 14.82   ~1BNI 20.01GVNEOCP568
     P10LmOO ^C2019 01 11.64118010 18 06.544-03 06 09.31   ~1BNI 19.98GVNEOCP568
     P10LmOO  C2019 01 12.46722 10 38 11.18 -02 26 36.7    ~1CCI 20.3 GVNEOCPI52
     P10LmOO  C2019 01 12.46960 10 38 14.49 -02 26 29.8    ~1CCI 20.2 GVNEOCPI52
     P10LmOO  C2019 01 12.47199 10 38 17.85 -02 26 23.0    ~1CCI 20.6 GVNEOCPI52
     P10LmOO  C2019 01 12.47437 10 38 21.19 -02 26 14.8    ~1CCI 20.9 GVNEOCPI52
     P10LmOO  C2019 01 12.48471 10 38 35.67 -02 25 40.7    ~1CDI 20.3 GVNEOCPG96
     P10LmOO  C2019 01 12.48985 10 38 42.82 -02 25 24.3    ~1CDI 20.2 GVNEOCPG96
     P10LmOO  C2019 01 12.49499 10 38 50.03 -02 25 07.8    ~1CDI 19.9 GVNEOCPG96
     P10LmOO  C2019 01 12.50012 10 38 57.24 -02 24 50.9    ~1CDI       VNEOCPG96

Station data:
(568) Mauna Kea  (N19.826116 W155.472200)  US/Hawaii.
(F51) Pan-STARRS 1, Haleakala  (N20.707235 W156.255910)  US/Hawaii.
   Observers N. Primak, A. Schultz, S. Watters, J. Thiel, T. Goggia. Measurer
   PS1 Science Consortium. 1.8-m Ritchey-Chrétien + CCD.
(G96) Mt. Lemmon Survey  (N32.442754 W110.788720)  US/Arizona.  Observers B.
   M. Africano, E. J. Christensen, G. A. Farneth, D. C. Fuls, A. R. Gibbs, A.
   D. Grauer, H. Groeller, J. A. Johnson, R. A. Kowalski, S. M. Larson, G. J.
   Leonard, R. L. Seaman, F. C. Shelly. 1.5-m reflector + 10K CCD.
(I52) Steward Observatory, Mt. Lemmon Station  (N32.442547 W110.788920)
   US/Arizona.  Observers B. M. Africano, E. J. Christensen, G. A. Farneth,
   D. C. Fuls, A. R. Gibbs, A. D. Grauer, H. Groeller, J. A. Johnson, R. A.
   Kowalski, S. M. Larson, G. J. Leonard, R. L. Seaman, F. C. Shelly. 1.0-m
   reflector + CCD.

Orbital elements:  P10LmOO
   Perihelion 2019 Feb 28.856013 +/- 0.0148 TT = 20:32:39 (JD 2458543.356013)
Epoch 2019 Jan 12.0 TT = JDT 2458495.5   Earth MOID: 0.0051   Ma: 0.0811
M 320.53801845 +/- 0.035            (J2000 ecliptic)          AutoNEOCP
n   0.82459818 +/- 0.000824         Peri.   50.17552 +/- 0.036
a   1.12626641 +/- 0.00075          Node   115.44278 +/- 0.0042
e   0.1634301 +/- 0.000754          Incl.    4.82929 +/- 0.021
P   1.20/436.57d           H 27.0   G  0.15   U  8.0  
q 0.94220056 +/- 0.000225    Q 1.31033227 +/- 0.00172
From 14 observations 2019 Jan. 10-12 (47.2 hr); mean residual 0".31
Residuals in arcseconds: 
190110 F51  .08+  .03-    190111 568  .05-  .05-    190112 G96  .67+  .36+    
190110 F51  .13-  .01+    190112 I52  .25-  .64+    190112 G96  .10-  .16+    
190110 F51  .13+  .05+    190112 I52  .37-  .10-    190112 G96  .14-  .02+    
190110 F51  .08-  .04-    190112 I52  .02+  .98-    190112 G96  .14-  .30+    
190111 568  .06+  .07+    190112 I52  .30+  .43-    

Ephemerides (geocentric):
Date (UTC) HH   RA              Dec         delta   r     elong  mag " sig PA
---- -- -- --  -------------   -----------  ------ ------ -----  --- ---- ---
2019 01 12 23  10 51 08.025   -01 55 34.14  .02205 0.9969 126.8 20.6 1.02 161
2019 01 13 00  10 52 15.761   -01 53 08.45  .02199 0.9968 126.6 20.6 1.04 157
2019 01 13 01  10 53 23.827   -01 50 41.78  .02194 0.9967 126.5 20.6 1.08 153
2019 01 13 02  10 54 32.222   -01 48 14.13  .02188 0.9966 126.3 20.6 1.12 149
2019 01 13 03  10 55 40.945   -01 45 45.52  .02183 0.9965 126.1 20.6 1.16 145
2019 01 13 04  10 56 49.995   -01 43 15.93  .02178 0.9964 125.9 20.6 1.21 141
2019 01 13 05  10 57 59.371   -01 40 45.38  .02172 0.9963 125.7 20.6 1.27 138
2019 01 13 06  10 59 09.072   -01 38 13.88  .02167 0.9962 125.5 20.6 1.34 135
2019 01 13 07  11 00 19.096   -01 35 41.41  .02162 0.9962 125.3 20.6 1.41 132
2019 01 13 08  11 01 29.443   -01 33 08.00  .02157 0.9961 125.1 20.6 1.48 129
2019 01 13 09  11 02 40.111   -01 30 33.64  .02152 0.9960 124.9 20.6 1.56 126
2019 01 13 10  11 03 51.098   -01 27 58.34  .02147 0.9959 124.7 20.6 1.65 124
2019 01 13 11  11 05 02.404   -01 25 22.11  .02142 0.9958 124.5 20.6 1.75 121
2019 01 13 12  11 06 14.026   -01 22 44.95  .02137 0.9957 124.3 20.6 1.84 119
2019 01 13 13  11 07 25.962   -01 20 06.86  .02132 0.9956 124.1 20.6 1.95 117
2019 01 13 14  11 08 38.211   -01 17 27.87  .02128 0.9955 123.9 20.6 2.06 115
2019 01 13 15  11 09 50.771   -01 14 47.96  .02123 0.9955 123.7 20.6 2.17 114
2019 01 13 16  11 11 03.641   -01 12 07.16  .02118 0.9954 123.5 20.6 2.29 112
2019 01 13 17  11 12 16.817   -01 09 25.46  .02114 0.9953 123.3 20.6 2.41 111
2019 01 13 18  11 13 30.298   -01 06 42.88  .02109 0.9952 123.1 20.6 2.54 109
2019 01 13 19  11 14 44.082   -01 03 59.43  .02105 0.9951 122.9 20.6 2.67 108
2019 01 13 20  11 15 58.166   -01 01 15.10  .02100 0.9950 122.6 20.6 2.80 107
2019 01 13 21  11 17 12.549   -00 58 29.92  .02096 0.9949 122.4 20.6 2.94 106
2019 01 13 22  11 18 27.227   -00 55 43.89  .02092 0.9948 122.2 20.6 3.09 105
2019 01 13 23  11 19 42.197   -00 52 57.03  .02087 0.9947 122.0 20.6 3.23 104
2019 01 14 00  11 20 57.459   -00 50 09.33  .02083 0.9947 121.8 20.6 3.39 103
2019 01 14 01  11 22 13.007   -00 47 20.82  .02079 0.9946 121.6 20.6 3.54 102
2019 01 14 02  11 23 28.841   -00 44 31.50  .02075 0.9945 121.3 20.6 3.70 101
2019 01 14 03  11 24 44.957   -00 41 41.38  .02071 0.9944 121.1 20.6 3.87 101
2019 01 14 04  11 26 01.351   -00 38 50.48  .02067 0.9943 120.9 20.6 4.03 100
2019 01 14 05  11 27 18.021   -00 35 58.81  .02064 0.9942 120.7 20.6 4.21  99
2019 01 14 06  11 28 34.964   -00 33 06.38  .02060 0.9941 120.4 20.6 4.38  99
2019 01 14 07  11 29 52.176   -00 30 13.20  .02056 0.9941 120.2 20.6 4.56  98
2019 01 14 08  11 31 09.654   -00 27 19.29  .02052 0.9940 120.0 20.6 4.74  98
2019 01 14 09  11 32 27.395   -00 24 24.66  .02049 0.9939 119.7 20.6 4.93  97
2019 01 14 10  11 33 45.394   -00 21 29.32  .02045 0.9938 119.5 20.6 5.12  97
2019 01 14 11  11 35 03.649   -00 18 33.29  .02042 0.9937 119.3 20.7 5.32  96
2019 01 14 12  11 36 22.156   -00 15 36.58  .02039 0.9936 119.1 20.7 5.52  96
2019 01 14 13  11 37 40.910   -00 12 39.20  .02035 0.9935 118.8 20.7 5.72  95
2019 01 14 14  11 38 59.909   -00 09 41.18  .02032 0.9934 118.6 20.7 5.92  95
2019 01 14 15  11 40 19.147   -00 06 42.52  .02029 0.9934 118.3 20.7 6.13  95
2019 01 14 16  11 41 38.622   -00 03 43.24  .02026 0.9933 118.1 20.7 6.35  94
2019 01 14 17  11 42 58.328   -00 00 43.37  .02023 0.9932 117.9 20.7 6.56  94
2019 01 14 18  11 44 18.261   +00 02 17.09  .02020 0.9931 117.6 20.7 6.78  94
2019 01 14 19  11 45 38.418   +00 05 18.13  .02017 0.9930 117.4 20.7 7.01  93
2019 01 14 20  11 46 58.794   +00 08 19.71  .02014 0.9929 117.1 20.7 7.23  93
2019 01 14 21  11 48 19.384   +00 11 21.83  .02012 0.9928 116.9 20.7 7.46  93
2019 01 14 22  11 49 40.183   +00 14 24.46  .02009 0.9927 116.6 20.7 7.70  92